Погода в Новоозёрном

Россия / Алтайский край     53°28′36″N   85°37′01″E
темп.,
°C
ветер,
м/с
пор.,
м/с
влажн.,
%
обл.,
%
осадки,
мм/ч
давл.,
гПа
погр.,
м
11 мая, вт
вт1101:00+8св4964100 0.0 1014240
04:00+6ссв41066100 0.0 1013265
07:00+7ссв31064100 0.0 1012363
10:00+12всв5743100 0.0 10121246
13:00+16всв5635100 0.0 10121773
16:00+17в4533100 0.0 10122122
19:00+17в2438100 0.0 1013877
22:00+12с1149100 0.0 101411
12 мая, ср
ср1201:00+10ссв225575 0.0 101520
04:00+8ссв226229 0.0 101512
07:00+9ссв236378 0.0 1015104
10:00+15св234696 0.0 1015599
13:00+19с343196 0.0 10142843
16:00+19с2431100 0.1 10141842
19:00+18св473791 0.1 1014914
22:00+13ссз225032 0.0 101615
13 мая, чт
чт1301:00+11ссв225798 0.0 101628
04:00+9ссв116582 0.0 101610
07:00+10ююв116285 0.0 101649
10:00+15ююв114793 0.1 1015579
13:00+19з1336100 0.1 10142544
16:00+18сз344120 0.1 10131595
19:00+15з345497 0.2 1013289
22:00+12сз3767100 0.5 1015221
14 мая, пт
пт1401:00+10з3674100 0.5 1015176
04:00+10зсз267976 0.0 1014193
07:00+10сз488975 0.1 1015404
10:00+12сз576554 0.4 10151094
13:00+15сз7943100 0.4 10152362
16:00+12с996260 0.7 10181166
19:00+12ссз68365 0.7 10202121
22:00+7с2250100 0.0 102428
15 мая, сб
сб1501:00+5юз115295 0.0 102610
04:00+5юз2256100 0.0 102630
07:00+6юз385472 0.0 1026257
10:00+9з6748100 0.1 10261125
13:00+7ю51072100 1.6 1025522
16:00+11зюз51164100 1.1 1022694
19:00+17зюз365745 0.1 1017290
22:00